Location: Unnamed
(48.6007°N, 2.4808°E)
Time: 09:23:33
(UTC+02:00)

PCSat - Pass Details

Date: 03 April 2023
Orbit: 783 x 794 km, 67.1° (Epoch: 29 May)

Event Time Altitude Azimuth Distance (km) Brightness Sun altitude
Rises 00:34:14 0° 326° (NNW) 3,302 13.8 -33.6°
Reaches altitude 10° 00:36:43 10° 331° (NNW) 2,371 12.8 -33.7°
Enters shadow 00:40:22 39° 356° (N) 1,178 10.8 -34.0°
